Voltar ao catálogo

COSMOS 970 DEB

AtivoLEO
NORAD 12866·DEBRIS·🇷🇺 Russia

Lançado Dec 21, 1977 de Baikonur Cosmodrome

Loading…

Próximas Passagens (próximas 24 horas)

TLE

AtualizadoSource: Space-Track

Época: Sep 14, 2026, 14:33 UTC

1 12866U 77121AU  26257.60646182  .00000020  00000-0  12787-3 0  9996
2 12866  65.8162 129.0981 0110482 323.9733  57.8209 13.58518246316126

Acompanhe COSMOS 970 DEB em tempo real com AllMySat

Download on the App Store